Weather History for Ukiah, CA

Change the Weather History Date:

Friday, September 13, 2013

  Actual Average Record
Temperature  
Mean Temperature 76 °F 69 °F  
Max Temperature 96 °F 88 °F 110 °F (1971)
Min Temperature 55 °F 50 °F 35 °F (1921)
Degree Days  
Heating Degree Days 0 1  
Month to date heating degree days 3  
Since 1 July heating degree days 6  
Cooling Degree Days 10 5  
Month to date cooling degree days 71  
Year to date cooling degree days 754  
Growing Degree Days 26 (Base 50)    
Moisture  
Dew Point 51 °F    
Average Humidity 52    
Maximum Humidity 86    
Minimum Humidity 17    
Precipitation  
Precipitation 0.00 in 0.02 in 0.97 in (1918)
Month to date precipitation 0.00 0.16  
Year to date precipitation 5.61 23.68  
Since 1 July precipitation 0.03 0.30  
Snow  
Snow 0.00 in - - ()
Month to date snowfall 0.0  
Since 1 July snowfall 0.0  
Since 1 September snowfall 0.0  
Snow Depth -    
Sea Level Pressure  
Sea Level Pressure 29.81 in    
Wind  
Wind Speed 2 mph (North)    
Max Wind Speed 16 mph    
Max Gust Speed 23 mph    
Visibility 10 miles    
Events      
T = Trace of Precipitation, MM = Missing Value Source: NWS Daily Summary

Daily Weather History Graph

Daily Weather History Graph

Search for Another Location

Airport:

Trip Planner

Search our weather history database for the weather conditions in past years. The results will help you decide how hot, cold, wet, or windy it might be!

Date:

Astronomy

Sep. 13, 2013 Rise Set
Actual Time 6:52 AM PDT 7:23 PM PDT
Civil Twilight 6:25 AM PDT 7:50 PM PDT
Nautical Twilight 5:54 AM PDT 8:22 PM PDT
Astronomical Twilight 5:21 AM PDT 8:54 PM PDT
Moon 3:16 PM PDT (9/13) 12:29 AM PDT (9/13)
Length of Visible Light 13h 24m
Length of Day
12h 31m
Waxing Gibbous, 62% of the Moon is Illuminated
Sep 13
Waxing Gibbous
Sep 19
Full
Sep 26
Last Quarter
Oct 4
New
Oct 11
First Quarter

Hourly Weather History & Observations

Time (PDT) Temp. Dew Point Humidity Pressure Visibility Wind Dir Wind Speed Gust Speed Precip Events Conditions
12:56 AM 60.1 °F 53.1 °F 78% 29.88 in 10.0 mi Calm Calm - N/A   Clear
1:56 AM 60.1 °F 53.1 °F 78% 29.88 in 10.0 mi Calm Calm - N/A   Clear
2:56 AM 57.9 °F 52.0 °F 81% 29.87 in 10.0 mi Calm Calm - N/A   Clear
3:56 AM 59.0 °F 52.0 °F 78% 29.87 in 10.0 mi Calm Calm - N/A   Clear
4:56 AM 55.9 °F 51.1 °F 84% 29.87 in 10.0 mi Calm Calm - N/A   Clear
5:56 AM 55.9 °F 51.1 °F 84% 29.87 in 10.0 mi Calm Calm - N/A   Clear
6:56 AM 55.9 °F 51.1 °F 84% 29.88 in 10.0 mi Calm Calm - N/A   Clear
7:56 AM 57.0 °F 52.0 °F 83% 29.88 in 10.0 mi Calm Calm - N/A   Clear
8:56 AM 64.0 °F 52.0 °F 65% 29.88 in 10.0 mi Calm Calm - N/A   Clear
9:56 AM 72.0 °F 53.1 °F 51% 29.87 in 10.0 mi Calm Calm - N/A   Clear
10:56 AM 77.0 °F 55.0 °F 47% 29.84 in 10.0 mi Calm Calm - N/A   Clear
11:56 AM 84.0 °F 51.1 °F 32% 29.82 in 10.0 mi Calm Calm - N/A   Clear
12:56 PM 89.1 °F 51.1 °F 27% 29.79 in 10.0 mi Calm Calm - N/A   Clear
1:56 PM 93.0 °F 51.1 °F 24% 29.77 in 10.0 mi Variable 3.5 mph - N/A   Clear
2:56 PM 96.1 °F 45.0 °F 17% 29.75 in 10.0 mi NNW 11.5 mph - N/A   Clear
3:56 PM 91.9 °F 46.9 °F 21% 29.74 in 10.0 mi North 12.7 mph - N/A   Clear
4:56 PM 89.1 °F 46.0 °F 22% 29.73 in 10.0 mi North 11.5 mph - N/A   Clear
5:56 PM 86.0 °F 46.9 °F 26% 29.73 in 10.0 mi North 11.5 mph 20.7 mph N/A   Clear
6:56 PM 80.1 °F 51.1 °F 36% 29.74 in 10.0 mi NNE 6.9 mph - N/A   Clear
7:56 PM 75.9 °F 52.0 °F 43% 29.75 in 10.0 mi North 4.6 mph - N/A   Clear
8:56 PM 71.1 °F 52.0 °F 51% 29.77 in 10.0 mi North 3.5 mph - N/A   Clear
9:56 PM 69.1 °F 52.0 °F 54% 29.77 in 10.0 mi Calm Calm - N/A   Clear
10:56 PM 66.9 °F 52.0 °F 59% 29.77 in 10.0 mi Calm Calm - N/A   Clear
11:56 PM 64.0 °F 51.1 °F 63% 29.77 in 10.0 mi Calm Calm - N/A   Clear